Time,TemperatureF,DewpointF,PressureIn,WindDirection,WindDirectionDegrees,WindSpeedMPH,WindSpeedGustMPH,Humidity,HourlyPrecipIn,Conditions,Clouds,dailyrainin,SoftwareType,DateUTC
2013-02-25 00:01:00,36.0,4.0,-100.00,NNW,336,5.0,9.0,26,-99.99,,,-99.99,,2013-02-25 08:01:00,
2013-02-25 00:11:00,36.0,5.0,-100.00,NNE,33,3.0,7.0,27,-99.99,,,-99.99,,2013-02-25 08:11:00,
2013-02-25 00:21:00,33.0,7.0,-100.00,WNW,287,2.0,5.0,33,-99.99,,,-99.99,,2013-02-25 08:21:00,
2013-02-25 00:31:00,33.0,6.0,-100.00,NNW,336,2.0,4.0,32,-99.99,,,-99.99,,2013-02-25 08:31:00,
2013-02-25 00:41:00,34.0,6.0,-100.00,NNE,21,3.0,6.0,30,-99.99,,,-99.99,,2013-02-25 08:41:00,
2013-02-25 00:52:00,34.0,7.0,-100.00,SE,143,2.0,9.0,32,-99.99,,,-99.99,,2013-02-25 08:52:00,
2013-02-25 01:01:00,29.0,10.0,-100.00,NNE,20,2.0,5.0,44,-99.99,,,-99.99,,2013-02-25 09:01:00,
2013-02-25 01:12:00,29.0,8.0,-100.00,North,11,4.0,6.0,41,-99.99,,,-99.99,,2013-02-25 09:12:00,
2013-02-25 01:21:00,29.0,9.0,-100.00,NNW,332,1.0,3.0,43,-99.99,,,-99.99,,2013-02-25 09:21:00,
2013-02-25 01:31:00,32.0,7.0,-100.00,NNE,28,5.0,7.0,35,-99.99,,,-99.99,,2013-02-25 09:31:00,
2013-02-25 01:41:00,31.0,8.0,-100.00,South,177,2.0,5.0,38,-99.99,,,-99.99,,2013-02-25 09:41:00,
2013-02-25 01:51:00,30.0,9.0,-100.00,NW,322,4.0,9.0,40,-99.99,,,-99.99,,2013-02-25 09:51:00,
2013-02-25 02:01:00,32.0,7.0,-100.00,North,350,8.0,10.0,34,-99.99,,,-99.99,,2013-02-25 10:01:00,
2013-02-25 02:11:00,32.0,7.0,-100.00,NW,313,2.0,5.0,35,-99.99,,,-99.99,,2013-02-25 10:11:00,
2013-02-25 02:21:00,32.0,7.0,-100.00,NNW,346,6.0,9.0,35,-99.99,,,-99.99,,2013-02-25 10:21:00,
2013-02-25 02:31:00,33.0,7.0,-100.00,NNE,13,8.0,11.0,33,-99.99,,,-99.99,,2013-02-25 10:31:00,
2013-02-25 02:41:00,34.0,7.0,-100.00,NNE,17,6.0,10.0,32,-99.99,,,-99.99,,2013-02-25 10:41:00,
2013-02-25 02:52:00,33.0,7.0,-100.00,NW,325,3.0,5.0,33,-99.99,,,-99.99,,2013-02-25 10:52:00,
2013-02-25 03:01:00,32.0,8.0,-100.00,SE,132,1.0,3.0,36,-99.99,,,-99.99,,2013-02-25 11:01:00,
2013-02-25 03:11:00,31.0,7.0,-100.00,ENE,61,3.0,6.0,36,-99.99,,,-99.99,,2013-02-25 11:11:00,
2013-02-25 03:21:00,32.0,7.0,-100.00,North,10,6.0,8.0,35,-99.99,,,-99.99,,2013-02-25 11:21:00,
2013-02-25 03:32:00,33.0,7.0,-100.00,North,357,7.0,9.0,33,-99.99,,,-99.99,,2013-02-25 11:32:00,
2013-02-25 03:42:00,34.0,7.0,-100.00,North,11,7.0,10.0,31,-99.99,,,-99.99,,2013-02-25 11:42:00,
2013-02-25 03:52:00,35.0,7.0,-100.00,ENE,61,2.0,7.0,31,-99.99,,,-99.99,,2013-02-25 11:52:00,
2013-02-25 04:01:00,33.0,7.0,-100.00,NW,310,2.0,4.0,33,-99.99,,,-99.99,,2013-02-25 12:01:00,
2013-02-25 04:11:00,34.0,6.0,-100.00,NE,34,4.0,7.0,30,-99.99,,,-99.99,,2013-02-25 12:11:00,
2013-02-25 04:21:00,35.0,6.0,-100.00,ENE,59,3.0,9.0,29,-99.99,,,-99.99,,2013-02-25 12:21:00,
2013-02-25 04:32:00,30.0,8.0,-100.00,SSE,167,1.0,3.0,39,-99.99,,,-99.99,,2013-02-25 12:32:00,
2013-02-25 04:41:00,30.0,7.0,-100.00,West,265,2.0,5.0,37,-99.99,,,-99.99,,2013-02-25 12:41:00,
2013-02-25 04:53:00,33.0,6.0,-100.00,North,1,3.0,6.0,32,-99.99,,,-99.99,,2013-02-25 12:53:00,
2013-02-25 05:01:00,33.0,6.0,-100.00,NNW,341,2.0,6.0,31,-99.99,,,-99.99,,2013-02-25 13:01:00,
2013-02-25 05:12:00,33.0,6.0,-100.00,North,6,4.0,9.0,31,-99.99,,,-99.99,,2013-02-25 13:12:00,
2013-02-25 05:21:00,37.0,5.0,-100.00,NNW,334,3.0,8.0,26,-99.99,,,-99.99,,2013-02-25 13:21:00,
2013-02-25 05:31:00,35.0,5.0,-100.00,NNE,20,5.0,8.0,28,-99.99,,,-99.99,,2013-02-25 13:31:00,
2013-02-25 05:41:00,37.0,5.0,-100.00,NNW,342,5.0,7.0,26,-99.99,,,-99.99,,2013-02-25 13:41:00,
2013-02-25 05:51:00,35.0,7.0,-100.00,North,358,2.0,5.0,30,-99.99,,,-99.99,,2013-02-25 13:51:00,
2013-02-25 06:02:00,36.0,4.0,-100.00,NNE,17,5.0,7.0,26,-99.99,,,-99.99,,2013-02-25 14:02:00,
2013-02-25 06:14:00,38.0,4.0,-100.00,North,357,5.0,10.0,24,-99.99,,,-99.99,,2013-02-25 14:14:00,
2013-02-25 06:21:00,38.0,4.0,-100.00,NNW,344,7.0,11.0,24,-99.99,,,-99.99,,2013-02-25 14:21:00,
2013-02-25 06:31:00,35.0,6.0,-100.00,SSW,207,1.0,5.0,29,-99.99,,,-99.99,,2013-02-25 14:31:00,
2013-02-25 06:41:00,35.0,6.0,-100.00,NW,320,4.0,8.0,29,-99.99,,,-99.99,,2013-02-25 14:41:00,
2013-02-25 06:52:00,36.0,4.0,-100.00,North,355,6.0,8.0,26,-99.99,,,-99.99,,2013-02-25 14:52:00,
2013-02-25 07:02:00,34.0,5.0,-100.00,NNE,29,3.0,5.0,29,-99.99,,,-99.99,,2013-02-25 15:02:00,
2013-02-25 07:11:00,35.0,6.0,-100.00,North,359,7.0,10.0,29,-99.99,,,-99.99,,2013-02-25 15:11:00,
2013-02-25 07:21:00,34.0,7.0,-100.00,North,355,4.0,6.0,32,-99.99,,,-99.99,,2013-02-25 15:21:00,
2013-02-25 07:32:00,33.0,7.0,-100.00,North,356,4.0,7.0,33,-99.99,,,-99.99,,2013-02-25 15:32:00,
2013-02-25 07:41:00,34.0,9.0,-100.00,North,8,4.0,5.0,34,-99.99,,,-99.99,,2013-02-25 15:41:00,
2013-02-25 07:51:00,36.0,8.0,-100.00,NNE,32,3.0,4.0,31,-99.99,,,-99.99,,2013-02-25 15:51:00,
2013-02-25 08:01:00,39.0,9.0,-100.00,North,3,3.0,5.0,28,-99.99,,,-99.99,,2013-02-25 16:01:00,
2013-02-25 08:11:00,41.0,10.0,-100.00,SE,144,1.0,3.0,28,-99.99,,,-99.99,,2013-02-25 16:11:00,
2013-02-25 08:21:00,45.0,9.0,-100.00,NE,40,0.0,1.0,23,-99.99,,,-99.99,,2013-02-25 16:21:00,
2013-02-25 08:31:00,44.0,9.0,-100.00,WNW,296,1.0,3.0,23,-99.99,,,-99.99,,2013-02-25 16:31:00,
2013-02-25 08:41:00,46.0,7.0,-100.00,North,1,1.0,2.0,20,-99.99,,,-99.99,,2013-02-25 16:41:00,
2013-02-25 08:51:00,47.0,8.0,-100.00,South,174,2.0,4.0,20,-99.99,,,-99.99,,2013-02-25 16:51:00,
2013-02-25 09:01:00,47.0,11.0,-100.00,South,189,3.0,5.0,23,-99.99,,,-99.99,,2013-02-25 17:01:00,
2013-02-25 09:11:00,47.0,13.0,-100.00,SSW,192,4.0,6.0,25,-99.99,,,-99.99,,2013-02-25 17:11:00,
2013-02-25 09:21:00,48.0,8.0,-100.00,South,190,4.0,6.0,19,-99.99,,,-99.99,,2013-02-25 17:21:00,
2013-02-25 09:31:00,50.0,4.0,-100.00,SSW,194,2.0,4.0,15,-99.99,,,-99.99,,2013-02-25 17:31:00,
2013-02-25 09:41:00,51.0,4.0,-100.00,WSW,238,2.0,4.0,14,-99.99,,,-99.99,,2013-02-25 17:41:00,
2013-02-25 09:52:00,53.0,4.0,-100.00,SSW,198,1.0,4.0,13,-99.99,,,-99.99,,2013-02-25 17:52:00,
2013-02-25 10:01:00,53.0,2.0,-100.00,SSE,151,2.0,4.0,12,-99.99,,,-99.99,,2013-02-25 18:01:00,
2013-02-25 10:12:00,54.0,3.0,-100.00,SE,136,2.0,5.0,12,-99.99,,,-99.99,,2013-02-25 18:12:00,
2013-02-25 10:21:00,54.0,3.0,-100.00,ESE,102,3.0,6.0,12,-99.99,,,-99.99,,2013-02-25 18:21:00,
2013-02-25 10:32:00,54.0,3.0,-100.00,SE,132,4.0,8.0,12,-99.99,,,-99.99,,2013-02-25 18:32:00,
2013-02-25 10:41:00,55.0,5.0,-100.00,South,171,5.0,10.0,13,-99.99,,,-99.99,,2013-02-25 18:41:00,
2013-02-25 10:51:00,55.0,5.0,-100.00,South,184,7.0,11.0,13,-99.99,,,-99.99,,2013-02-25 18:51:00,
2013-02-25 11:01:00,55.0,5.0,-100.00,South,185,4.0,9.0,13,-99.99,,,-99.99,,2013-02-25 19:01:00,
2013-02-25 11:11:00,56.0,6.0,-100.00,SSW,203,3.0,8.0,13,-99.99,,,-99.99,,2013-02-25 19:11:00,
2013-02-25 11:21:00,57.0,5.0,-100.00,SSW,198,4.0,9.0,12,-99.99,,,-99.99,,2013-02-25 19:21:00,
2013-02-25 11:31:00,57.0,7.0,-100.00,SSE,164,3.0,9.0,13,-99.99,,,-99.99,,2013-02-25 19:31:00,
2013-02-25 11:41:00,57.0,7.0,-100.00,South,176,7.0,14.0,13,-99.99,,,-99.99,,2013-02-25 19:41:00,
2013-02-25 11:52:00,57.0,7.0,-100.00,SSE,161,5.0,11.0,13,-99.99,,,-99.99,,2013-02-25 19:52:00,
2013-02-25 12:01:00,57.0,7.0,-100.00,SW,224,8.0,13.0,13,-99.99,,,-99.99,,2013-02-25 20:01:00,
2013-02-25 12:11:00,57.0,8.0,-100.00,SW,227,8.0,13.0,14,-99.99,,,-99.99,,2013-02-25 20:11:00,
2013-02-25 12:21:00,58.0,9.0,-100.00,SSW,209,8.0,14.0,14,-99.99,,,-99.99,,2013-02-25 20:21:00,
2013-02-25 12:31:00,57.0,8.0,-100.00,SW,216,8.0,16.0,14,-99.99,,,-99.99,,2013-02-25 20:31:00,
2013-02-25 12:41:00,57.0,8.0,-100.00,South,188,10.0,17.0,14,-99.99,,,-99.99,,2013-02-25 20:41:00,
2013-02-25 12:52:00,57.0,8.0,-100.00,South,175,9.0,14.0,14,-99.99,,,-99.99,,2013-02-25 20:52:00,
2013-02-25 13:01:00,57.0,8.0,-100.00,South,179,9.0,15.0,14,-99.99,,,-99.99,,2013-02-25 21:01:00,
2013-02-25 13:11:00,58.0,9.0,-100.00,South,173,7.0,13.0,14,-99.99,,,-99.99,,2013-02-25 21:11:00,
2013-02-25 13:21:00,58.0,9.0,-100.00,South,177,10.0,16.0,14,-99.99,,,-99.99,,2013-02-25 21:21:00,
2013-02-25 13:31:00,58.0,9.0,-100.00,SSW,195,9.0,15.0,14,-99.99,,,-99.99,,2013-02-25 21:31:00,
2013-02-25 13:41:00,59.0,10.0,-100.00,SSW,211,8.0,18.0,14,-99.99,,,-99.99,,2013-02-25 21:41:00,
2013-02-25 13:51:00,59.0,11.0,-100.00,WSW,239,8.0,14.0,15,-99.99,,,-99.99,,2013-02-25 21:51:00,
2013-02-25 14:01:00,59.0,10.0,-100.00,West,260,7.0,14.0,14,-99.99,,,-99.99,,2013-02-25 22:01:00,
2013-02-25 14:11:00,59.0,10.0,-100.00,West,272,7.0,15.0,14,-99.99,,,-99.99,,2013-02-25 22:11:00,
2013-02-25 14:21:00,59.0,10.0,-100.00,West,275,6.0,13.0,14,-99.99,,,-99.99,,2013-02-25 22:21:00,
2013-02-25 14:31:00,60.0,11.0,-100.00,West,263,5.0,14.0,14,-99.99,,,-99.99,,2013-02-25 22:31:00,
2013-02-25 14:41:00,59.0,10.0,-100.00,WNW,284,9.0,15.0,14,-99.99,,,-99.99,,2013-02-25 22:41:00,
2013-02-25 14:51:00,59.0,10.0,-100.00,WNW,284,7.0,12.0,14,-99.99,,,-99.99,,2013-02-25 22:51:00,
2013-02-25 15:01:00,59.0,10.0,-100.00,NW,320,7.0,14.0,14,-99.99,,,-99.99,,2013-02-25 23:01:00,
2013-02-25 15:11:00,59.0,10.0,-100.00,WNW,291,6.0,14.0,14,-99.99,,,-99.99,,2013-02-25 23:11:00,
2013-02-25 15:21:00,58.0,11.0,-100.00,West,280,8.0,13.0,15,-99.99,,,-99.99,,2013-02-25 23:21:00,
2013-02-25 15:31:00,58.0,11.0,-100.00,WNW,291,10.0,15.0,15,-99.99,,,-99.99,,2013-02-25 23:31:00,
2013-02-25 15:41:00,58.0,11.0,-100.00,West,277,9.0,15.0,15,-99.99,,,-99.99,,2013-02-25 23:41:00,
2013-02-25 15:52:00,58.0,11.0,-100.00,West,274,8.0,13.0,15,-99.99,,,-99.99,,2013-02-25 23:52:00,
2013-02-25 16:01:00,58.0,11.0,-100.00,WNW,296,9.0,16.0,15,-99.99,,,-99.99,,2013-02-26 00:01:00,
2013-02-25 16:11:00,57.0,11.0,-100.00,WNW,283,8.0,16.0,16,-99.99,,,-99.99,,2013-02-26 00:11:00,
2013-02-25 16:21:00,57.0,13.0,-100.00,West,275,10.0,16.0,17,-99.99,,,-99.99,,2013-02-26 00:21:00,
2013-02-25 16:32:00,56.0,13.0,-100.00,West,269,9.0,16.0,18,-99.99,,,-99.99,,2013-02-26 00:32:00,
2013-02-25 16:41:00,56.0,13.0,-100.00,WNW,287,9.0,16.0,18,-99.99,,,-99.99,,2013-02-26 00:41:00,
2013-02-25 16:51:00,56.0,13.0,-100.00,West,276,9.0,14.0,18,-99.99,,,-99.99,,2013-02-26 00:51:00,
2013-02-25 17:01:00,55.0,12.0,-100.00,West,278,10.0,16.0,18,-99.99,,,-99.99,,2013-02-26 01:01:00,
2013-02-25 17:11:00,55.0,12.0,-100.00,WNW,283,9.0,15.0,18,-99.99,,,-99.99,,2013-02-26 01:11:00,
2013-02-25 17:21:00,54.0,13.0,-100.00,WNW,282,9.0,17.0,19,-99.99,,,-99.99,,2013-02-26 01:21:00,
2013-02-25 17:31:00,53.0,13.0,-100.00,WNW,291,10.0,21.0,20,-99.99,,,-99.99,,2013-02-26 01:31:00,
2013-02-25 17:41:00,51.0,15.0,-100.00,WNW,288,10.0,17.0,23,-99.99,,,-99.99,,2013-02-26 01:41:00,
2013-02-25 17:51:00,50.0,14.0,-100.00,WNW,293,8.0,13.0,23,-99.99,,,-99.99,,2013-02-26 01:51:00,
2013-02-25 18:01:00,50.0,14.0,-100.00,WNW,289,8.0,12.0,23,-99.99,,,-99.99,,2013-02-26 02:01:00,
2013-02-25 18:11:00,49.0,14.0,-100.00,WNW,297,7.0,13.0,24,-99.99,,,-99.99,,2013-02-26 02:11:00,
2013-02-25 18:21:00,48.0,13.0,-100.00,NW,305,6.0,11.0,24,-99.99,,,-99.99,,2013-02-26 02:21:00,
2013-02-25 18:31:00,47.0,13.0,-100.00,NW,314,5.0,11.0,25,-99.99,,,-99.99,,2013-02-26 02:31:00,
2013-02-25 18:41:00,47.0,14.0,-100.00,NW,325,5.0,10.0,26,-99.99,,,-99.99,,2013-02-26 02:41:00,
2013-02-25 18:52:00,46.0,15.0,-100.00,NNW,341,4.0,7.0,28,-99.99,,,-99.99,,2013-02-26 02:52:00,
2013-02-25 19:01:00,44.0,15.0,-100.00,North,10,4.0,6.0,31,-99.99,,,-99.99,,2013-02-26 03:01:00,
2013-02-25 19:11:00,44.0,17.0,-100.00,North,7,4.0,6.0,33,-99.99,,,-99.99,,2013-02-26 03:11:00,
2013-02-25 19:21:00,43.0,16.0,-100.00,North,11,3.0,5.0,33,-99.99,,,-99.99,,2013-02-26 03:21:00,
2013-02-25 19:31:00,42.0,16.0,-100.00,NNE,21,4.0,6.0,34,-99.99,,,-99.99,,2013-02-26 03:31:00,
2013-02-25 19:41:00,42.0,17.0,-100.00,ENE,64,2.0,5.0,36,-99.99,,,-99.99,,2013-02-26 03:41:00,
2013-02-25 19:51:00,41.0,16.0,-100.00,North,9,2.0,5.0,36,-99.99,,,-99.99,,2013-02-26 03:51:00,
2013-02-25 20:01:00,42.0,16.0,-100.00,NNE,15,4.0,6.0,34,-99.99,,,-99.99,,2013-02-26 04:01:00,
2013-02-25 20:11:00,41.0,17.0,-100.00,North,6,4.0,7.0,38,-99.99,,,-99.99,,2013-02-26 04:11:00,
2013-02-25 20:21:00,41.0,17.0,-100.00,North,2,6.0,9.0,38,-99.99,,,-99.99,,2013-02-26 04:21:00,
2013-02-25 20:31:00,41.0,18.0,-100.00,NNW,336,7.0,11.0,39,-99.99,,,-99.99,,2013-02-26 04:31:00,
2013-02-25 20:42:00,41.0,19.0,-100.00,NNW,338,8.0,11.0,40,-99.99,,,-99.99,,2013-02-26 04:42:00,
2013-02-25 20:51:00,40.0,18.0,-100.00,NNW,334,8.0,11.0,40,-99.99,,,-99.99,,2013-02-26 04:51:00,
2013-02-25 21:01:00,40.0,17.0,-100.00,NW,323,7.0,12.0,39,-99.99,,,-99.99,,2013-02-26 05:01:00,
2013-02-25 21:11:00,40.0,18.0,-100.00,NNW,340,10.0,14.0,40,-99.99,,,-99.99,,2013-02-26 05:11:00,
2013-02-25 21:21:00,40.0,17.0,-100.00,NNW,336,8.0,11.0,39,-99.99,,,-99.99,,2013-02-26 05:21:00,
2013-02-25 21:31:00,40.0,16.0,-100.00,NNW,331,7.0,12.0,38,-99.99,,,-99.99,,2013-02-26 05:31:00,
2013-02-25 21:42:00,38.0,18.0,-100.00,NNE,21,3.0,7.0,44,-99.99,,,-99.99,,2013-02-26 05:42:00,
2013-02-25 21:52:00,37.0,18.0,-100.00,NE,54,1.0,5.0,45,-99.99,,,-99.99,,2013-02-26 05:52:00,
2013-02-25 22:01:00,37.0,17.0,-100.00,North,3,2.0,6.0,44,-99.99,,,-99.99,,2013-02-26 06:01:00,
2013-02-25 22:11:00,36.0,17.0,-100.00,NNE,12,1.0,5.0,45,-99.99,,,-99.99,,2013-02-26 06:11:00,
2013-02-25 22:21:00,37.0,16.0,-100.00,NNW,346,8.0,11.0,41,-99.99,,,-99.99,,2013-02-26 06:21:00,
2013-02-25 22:31:00,38.0,15.0,-100.00,NW,321,6.0,10.0,38,-99.99,,,-99.99,,2013-02-26 06:31:00,
2013-02-25 22:41:00,38.0,15.0,-100.00,NW,321,6.0,10.0,38,-99.99,,,-99.99,,2013-02-26 06:41:00,
2013-02-25 22:51:00,39.0,14.0,-100.00,NW,320,6.0,8.0,36,-99.99,,,-99.99,,2013-02-26 06:51:00,
2013-02-25 23:01:00,40.0,13.0,-100.00,NW,325,7.0,10.0,33,-99.99,,,-99.99,,2013-02-26 07:01:00,
2013-02-25 23:11:00,41.0,13.0,-100.00,NNW,330,6.0,9.0,32,-99.99,,,-99.99,,2013-02-26 07:11:00,
2013-02-25 23:22:00,40.0,13.0,-100.00,NNW,331,4.0,9.0,33,-99.99,,,-99.99,,2013-02-26 07:22:00,
2013-02-25 23:31:00,38.0,15.0,-100.00,ESE,103,1.0,4.0,38,-99.99,,,-99.99,,2013-02-26 07:31:00,
2013-02-25 23:41:00,36.0,14.0,-100.00,NNE,30,2.0,5.0,40,-99.99,,,-99.99,,2013-02-26 07:41:00,
2013-02-25 23:51:00,38.0,13.0,-100.00,NNE,12,6.0,10.0,36,-99.99,,,-99.99,,2013-02-26 07:51:00,